Jefferson, NC

1:08 AM EDT on May 01, 2017 (GMT -0400)
Ashe County

Weather History for KGEV - March, 2012

Change the Weather History Date:

Wednesday, March 28, 2012

  Actual Average Record
Temperature  
Mean Temperature 56 °F -  
Max Temperature 69 °F 58 °F 77 °F (2007)
Min Temperature 44 °F 32 °F 11 °F (1982)
Degree Days  
Heating Degree Days 8    
Growing Degree Days 6 (Base 50)    
Moisture  
Dew Point 42 °F    
Average Humidity 48    
Maximum Humidity 61    
Minimum Humidity 31    
Precipitation  
Precipitation 0.00 in - - ()
Sea Level Pressure  
Sea Level Pressure 30.06 in    
Wind  
Wind Speed 12 mph (West)    
Max Wind Speed 30 mph    
Max Gust Speed 44 mph    
Visibility 10 miles    
Events      
Averages and records for this station are not official NWS values.
T = Trace of Precipitation, MM = Missing Value Source: NWS Daily Summary

Daily Weather History Graph

Daily Weather History Graph

Search for Another Location

Airport or City:

Trip Planner

Search our weather history database for the weather conditions in past years. The results will help you decide how hot, cold, wet, or windy it might be!

Date:

Astronomy

Mar. 28, 2012 Rise Set
Actual Time 7:16 AM EDT 7:44 PM EDT
Civil Twilight 6:51 AM EDT 8:10 PM EDT
Nautical Twilight 6:20 AM EDT 8:41 PM EDT
Astronomical Twilight 5:49 AM EDT 9:12 PM EDT
Moon 10:41 AM EDT (3/28) 12:37 AM EDT (3/28)
Length of Visible Light 13h 19m
Length of Day
12h 27m
Waxing Crescent, 30% of the Moon is Illuminated
Mar 28
Waxing Crescent
Mar 30
First Quarter
Apr 6
Full
Apr 13
Last Quarter
Apr 21
New

Hourly Weather History & Observations

Time (EDT) Temp. Windchill Dew Point Humidity Pressure Visibility Wind Dir Wind Speed Gust Speed Precip Events Conditions
12:15 AM 46.4 °F - 32.0 °F 57% 30.23 in 10.0 mi Calm Calm - N/A   Clear
12:35 AM 46.4 °F - 32.0 °F 57% 30.22 in 10.0 mi Calm Calm - N/A   Clear
12:55 AM 46.4 °F 45.2 °F 32.0 °F 57% 30.22 in 10.0 mi SSE 3.5 mph - N/A   Clear
1:15 AM 44.6 °F - 32.0 °F 61% 30.21 in 10.0 mi Calm Calm - N/A   Clear
1:35 AM 44.6 °F - 32.0 °F 61% 30.21 in 10.0 mi Calm Calm - N/A   Clear
1:55 AM 46.4 °F 44.3 °F 32.0 °F 57% 30.20 in 10.0 mi South 4.6 mph - N/A   Clear
2:15 AM 46.4 °F - 32.0 °F 57% 30.20 in 10.0 mi Calm Calm - N/A   Clear
2:35 AM 46.4 °F - 32.0 °F 57% 30.20 in 10.0 mi Calm Calm - N/A   Clear
3:15 AM 46.4 °F - 32.0 °F 57% 30.19 in 10.0 mi Calm Calm - N/A   Clear
8:35 AM 59.0 °F - 41.0 °F 51% 30.14 in 10.0 mi West 15.0 mph 23.0 mph N/A   Clear
8:55 AM 60.8 °F - 41.0 °F 48% 30.13 in 10.0 mi West 18.4 mph 31.1 mph N/A   Clear
9:15 AM 60.8 °F - 41.0 °F 48% 30.13 in 10.0 mi West 28.8 mph 36.8 mph N/A   Clear
9:35 AM 60.8 °F - 41.0 °F 48% 30.12 in 10.0 mi WNW 27.6 mph 38.0 mph N/A   Clear
9:55 AM 60.8 °F - 41.0 °F 48% 30.13 in 10.0 mi West 23.0 mph 36.8 mph N/A   Clear
10:15 AM 60.8 °F - 41.0 °F 48% 30.12 in 10.0 mi WNW 28.8 mph 36.8 mph N/A   Clear
10:35 AM 60.8 °F - 42.8 °F 52% 30.12 in 10.0 mi WNW 27.6 mph 33.4 mph N/A   Clear
10:55 AM 60.8 °F - 42.8 °F 52% 30.12 in 10.0 mi West 23.0 mph 31.1 mph N/A   Clear
11:15 AM 60.8 °F - 42.8 °F 52% 30.12 in 10.0 mi WNW 19.6 mph 35.7 mph N/A   Clear
11:35 AM 62.6 °F - 42.8 °F 48% 30.11 in 10.0 mi WNW 27.6 mph 36.8 mph N/A   Clear
11:55 AM 62.6 °F - 42.8 °F 48% 30.11 in 10.0 mi WNW 20.7 mph 33.4 mph N/A   Clear
12:15 PM 62.6 °F - 42.8 °F 48% 30.11 in 10.0 mi West 25.3 mph 32.2 mph N/A   Clear
12:35 PM 64.4 °F - 42.8 °F 45% 30.10 in 10.0 mi West 13.8 mph 19.6 mph N/A   Clear
12:55 PM 64.4 °F - 42.8 °F 45% 30.09 in 10.0 mi West 11.5 mph 24.2 mph N/A   Clear
1:15 PM 64.4 °F - 42.8 °F 45% 30.08 in 10.0 mi West 15.0 mph 27.6 mph N/A   Clear
1:35 PM 68.0 °F - 42.8 °F 40% 30.07 in 10.0 mi West 15.0 mph 29.9 mph N/A   Clear
1:55 PM 68.0 °F - 44.6 °F 43% 30.06 in 10.0 mi West 17.3 mph 34.5 mph N/A   Clear
2:15 PM 68.0 °F - 42.8 °F 40% 30.04 in 10.0 mi West 20.7 mph 33.4 mph N/A   Clear
2:35 PM 68.0 °F - 42.8 °F 40% 30.04 in 10.0 mi West 17.3 mph 32.2 mph N/A   Clear
2:55 PM 69.8 °F - 41.0 °F 35% 30.03 in 10.0 mi WNW 29.9 mph 38.0 mph N/A   Clear
3:15 PM 69.8 °F - 41.0 °F 35% 30.02 in 7.0 mi West 23.0 mph 43.7 mph N/A   Clear
3:35 PM 69.8 °F - 41.0 °F 35% 30.01 in 7.0 mi WNW 29.9 mph 43.7 mph N/A   Clear
4:15 PM 69.8 °F - 41.0 °F 35% 30.00 in 7.0 mi West 20.7 mph 36.8 mph N/A   Clear
4:35 PM 69.8 °F - 37.4 °F 31% 29.99 in 10.0 mi WNW 27.6 mph 39.1 mph N/A   Clear
4:55 PM 69.8 °F - 41.0 °F 35% 29.99 in 10.0 mi West 21.9 mph 31.1 mph N/A   Clear
5:15 PM 69.8 °F - 41.0 °F 35% 29.98 in 10.0 mi West 13.8 mph 28.8 mph N/A   Clear
5:35 PM 69.8 °F - 41.0 °F 35% 29.97 in 10.0 mi WSW 13.8 mph 24.2 mph N/A   Clear
5:55 PM 69.8 °F - 42.8 °F 38% 29.97 in 10.0 mi West 15.0 mph 27.6 mph N/A   Clear
6:15 PM 68.0 °F - 42.8 °F 40% 29.98 in 10.0 mi West 15.0 mph 18.4 mph N/A   Scattered Clouds
6:35 PM 68.0 °F - 44.6 °F 43% 29.98 in 10.0 mi West 16.1 mph 26.5 mph N/A   Scattered Clouds
6:55 PM 68.0 °F - 44.6 °F 43% 29.98 in 10.0 mi West 13.8 mph 24.2 mph N/A   Scattered Clouds
7:15 PM 66.2 °F - 44.6 °F 46% 29.98 in 10.0 mi West 11.5 mph 23.0 mph N/A   Scattered Clouds
7:35 PM 66.2 °F - 46.4 °F 49% 29.98 in 10.0 mi WNW 20.7 mph 27.6 mph N/A   Clear
7:55 PM 64.4 °F - 46.4 °F 52% 29.99 in 10.0 mi WNW 13.8 mph 23.0 mph N/A   Clear
8:15 PM 64.4 °F - 46.4 °F 52% 29.98 in 10.0 mi West 10.4 mph 16.1 mph N/A   Clear
8:35 PM 64.4 °F - 46.4 °F 52% 29.98 in 10.0 mi West 15.0 mph 24.2 mph N/A   Clear
8:55 PM 64.4 °F - 46.4 °F 52% 29.98 in 10.0 mi West 13.8 mph 19.6 mph N/A   Clear
9:15 PM 64.4 °F - 46.4 °F 52% 29.99 in 10.0 mi West 12.7 mph 19.6 mph N/A   Clear
9:35 PM 64.4 °F - 46.4 °F 52% 29.99 in 10.0 mi West 11.5 mph 19.6 mph N/A   Clear
9:55 PM 64.4 °F - 48.2 °F 56% 29.99 in 10.0 mi West 15.0 mph 26.5 mph N/A   Clear
10:15 PM 62.6 °F - 48.2 °F 59% 30.00 in 10.0 mi West 16.1 mph 29.9 mph N/A   Clear
10:35 PM 62.6 °F - 48.2 °F 59% 30.00 in 10.0 mi West 13.8 mph 24.2 mph N/A   Clear
10:55 PM 62.6 °F - 48.2 °F 59% 29.99 in 10.0 mi WNW 18.4 mph 28.8 mph N/A   Clear
11:15 PM 62.6 °F - 48.2 °F 59% 30.00 in 10.0 mi WNW 13.8 mph 23.0 mph N/A   Scattered Clouds
11:35 PM 62.6 °F - 48.2 °F 59% 29.99 in 10.0 mi WNW 18.4 mph 25.3 mph N/A   Scattered Clouds
11:55 PM 62.6 °F - 48.2 °F 59% 29.98 in 10.0 mi WNW 17.3 mph 27.6 mph N/A   Clear